| time (UTC) | temp F | wind direction | speed knots | gust knots | rain 1hr in | rain 24hr in | rain mn in | humidity % | barometer mb |
| 20260503200159 | 62 | 313 | 7.8 | 8.7 | 0.00 | 0.00 | 0.00 | 39 | 998.9 |
| 20260503195656 | 62 | 259 | 7.8 | 8.7 | 0.00 | 0.00 | 0.00 | 39 | 998.9 |
| 20260503195153 | 61 | 220 | 5.2 | 7.0 | 0.00 | 0.00 | 0.00 | 40 | 999.1 |
| 20260503194650 | 62 | 175 | 7.8 | 9.6 | 0.00 | 0.00 | 0.00 | 40 | 999.1 |
| 20260503194145 | 62 | 220 | 7.8 | 11.3 | 0.00 | 0.00 | 0.00 | 40 | 999.5 |
| 20260503193642 | 63 | 172 | 1.7 | 4.3 | 0.00 | 0.00 | 0.00 | 43 | 999.5 |
| 20260503193138 | 62 | 159 | 2.6 | 2.6 | 0.00 | 0.00 | 0.00 | 42 | 999.6 |
| 20260503192634 | 62 | 215 | 5.2 | 7.0 | 0.00 | 0.00 | 0.00 | 42 | 999.8 |
| 20260503192129 | 62 | 199 | 3.5 | 4.3 | 0.00 | 0.00 | 0.00 | 43 | 1000.0 |
| 20260503191627 | 61 | 222 | 6.1 | 7.0 | 0.00 | 0.00 | 0.00 | 40 | 1000.0 |
| 20260503191124 | 61 | 247 | 7.8 | 9.6 | 0.00 | 0.00 | 0.00 | 41 | 1000.2 |
| 20260503190621 | 61 | 230 | 2.6 | 2.6 | 0.00 | 0.00 | 0.00 | 44 | 1000.1 |
| 20260503190117 | 61 | 218 | 8.7 | 11.3 | 0.00 | 0.00 | 0.00 | 42 | 1000.3 |
| 20260503185614 | 60 | 217 | 4.3 | 7.8 | 0.00 | 0.00 | 0.00 | 42 | 1000.0 |
| 20260503185115 | 61 | 230 | 4.3 | 6.1 | 0.00 | 0.00 | 0.00 | 41 | 1000.1 |
| 20260503184610 | 61 | 213 | 2.6 | 5.2 | 0.00 | 0.00 | 0.00 | 42 | 1000.5 |
| 20260503184107 | 60 | 204 | 3.5 | 4.3 | 0.00 | 0.00 | 0.00 | 44 | 1000.5 |
| 20260503183603 | 62 | 189 | 3.5 | 5.2 | 0.00 | 0.00 | 0.00 | 40 | 1000.4 |
| 20260503183100 | 61 | 211 | 4.3 | 5.2 | 0.00 | 0.00 | 0.00 | 41 | 1000.3 |
| 20260503182559 | 61 | 238 | 4.3 | 6.1 | 0.00 | 0.00 | 0.00 | 41 | 1000.5 |
| 20260503182056 | 61 | 253 | 7.0 | 8.7 | 0.00 | 0.00 | 0.00 | 41 | 1000.8 |
| 20260503181553 | 60 | 247 | 7.8 | 11.3 | 0.00 | 0.00 | 0.00 | 39 | 1000.6 |
| 20260503181050 | 59 | 216 | 8.7 | 12.2 | 0.00 | 0.00 | 0.00 | 41 | 1000.7 |
| 20260503180547 | 60 | 195 | 2.6 | 4.3 | 0.00 | 0.00 | 0.00 | 42 | 1000.7 |
| 20260503180044 | 60 | 163 | 7.0 | 8.7 | 0.00 | 0.00 | 0.00 | 43 | 1000.9 |
| 20260503175541 | 60 | 218 | 6.1 | 8.7 | 0.00 | 0.00 | 0.00 | 41 | 1000.8 |
| 20260503175039 | 60 | 228 | 5.2 | 6.1 | 0.00 | 0.00 | 0.00 | 41 | 1001.0 |
| 20260503174536 | 59 | 236 | 3.5 | 5.2 | 0.00 | 0.00 | 0.00 | 42 | 1001.0 |
| 20260503174032 | 60 | 245 | 7.8 | 11.3 | 0.00 | 0.00 | 0.00 | 41 | 1001.1 |
| 20260503173527 | 59 | 201 | 4.3 | 7.0 | 0.00 | 0.00 | 0.00 | 42 | 1001.2 |
| 20260503173023 | 59 | 265 | 1.7 | 1.7 | 0.00 | 0.00 | 0.00 | 48 | 1001.3 |
| 20260503172521 | 59 | 192 | 2.6 | 5.2 | 0.00 | 0.00 | 0.00 | 42 | 1001.5 |
| 20260503172018 | 59 | 236 | 8.7 | 11.3 | 0.00 | 0.00 | 0.00 | 37 | 1001.6 |
| 20260503171514 | 60 | 269 | 3.5 | 5.2 | 0.00 | 0.00 | 0.00 | 42 | 1001.5 |
| 20260503171012 | 59 | 191 | 2.6 | 5.2 | 0.00 | 0.00 | 0.00 | 43 | 1001.6 |
| 20260503170508 | 59 | 203 | 2.6 | 4.3 | 0.00 | 0.00 | 0.00 | 47 | 1001.6 |
| 20260503150900 | 55 | 207 | 3.5 | 5.2 | 0.00 | 0.00 | 0.00 | 50 | 1003.0 |
| 20260503150357 | 55 | 193 | 2.6 | 4.3 | 0.00 | 0.00 | 0.00 | 53 | 1003.1 |
| 20260503131250 | 45 | 189 | 2.6 | 2.6 | 0.00 | 0.00 | 0.00 | 69 | 1003.2 |
| 20260503130748 | 45 | 217 | 4.3 | 6.1 | 0.00 | 0.00 | 0.00 | 69 | 1003.1 |
| 20260503130245 | 44 | 222 | 2.6 | 4.3 | 0.00 | 0.00 | 0.00 | 71 | 1003.0 |
| 20260503120211 | 38 | 208 | 2.6 | 2.6 | 0.00 | 0.00 | 0.00 | 84 | 1002.9 |
| 20260503110638 | 32 | 184 | 0.0 | 0.0 | 0.00 | 0.00 | 0.00 | 99 | 1002.7 |
| 20260503110136 | 32 | 197 | 0.0 | 0.0 | 0.00 | 0.00 | 0.00 | 99 | 1002.4 |
| 20260503081452 | 30 | 172 | 0.0 | 0.0 | 0.00 | 0.00 | 0.00 | 99 | 1001.7 |
| 20260503080949 | 31 | 172 | 0.0 | 0.0 | 0.00 | 0.00 | 0.00 | 99 | 1001.7 |
| 20260503080445 | 31 | 172 | 0.0 | 0.0 | 0.00 | 0.00 | 0.00 | 99 | 1001.9 |
| 20260503072921 | 31 | 172 | 0.0 | 0.0 | 0.00 | 0.00 | 0.00 | 99 | 1001.5 |
| 20260503072419 | 31 | 172 | 0.0 | 0.0 | 0.00 | 0.00 | 0.00 | 99 | 1001.6 |
| 20260503071916 | 31 | 172 | 0.0 | 0.0 | 0.00 | 0.00 | 0.00 | 99 | 1001.6 |
| 20260503071413 | 30 | 172 | 0.0 | 0.0 | 0.00 | 0.00 | 0.00 | 98 | 1001.6 |
| 20260503070909 | 30 | 172 | 0.0 | 0.0 | 0.00 | 0.00 | 0.00 | 98 | 1001.5 |
| 20260503070406 | 31 | 172 | 0.0 | 0.0 | 0.00 | 0.00 | 0.00 | 97 | 1001.7 |
| 20260503060332 | 33 | 171 | 0.0 | 0.0 | 0.00 | 0.00 | 0.00 | 96 | 1001.8 |
| 20260503054820 | 33 | 172 | 0.0 | 0.0 | 0.00 | 0.00 | 0.00 | 95 | 1001.8 |
| 20260503054316 | 33 | 178 | 0.0 | 0.0 | 0.00 | 0.00 | 0.00 | 95 | 1001.9 |
| 20260503053814 | 33 | 179 | 0.0 | 0.0 | 0.00 | 0.00 | 0.00 | 95 | 1002.0 |
| 20260503053312 | 33 | 179 | 0.0 | 0.0 | 0.00 | 0.00 | 0.00 | 94 | 1001.8 |
| 20260503052808 | 33 | 179 | 0.0 | 0.0 | 0.00 | 0.00 | 0.00 | 94 | 1001.9 |
| 20260503052306 | 32 | 179 | 0.0 | 0.0 | 0.00 | 0.00 | 0.00 | 92 | 1001.7 |
| 20260503051801 | 33 | 179 | 0.0 | 0.0 | 0.00 | 0.00 | 0.00 | 92 | 1002.0 |
| 20260503051258 | 33 | 179 | 0.0 | 0.0 | 0.00 | 0.00 | 0.00 | 91 | 1001.9 |
| 20260503050754 | 34 | 180 | 0.0 | 0.0 | 0.00 | 0.00 | 0.00 | 91 | 1001.9 |
| 20260503050250 | 35 | 180 | 0.0 | 0.0 | 0.00 | 0.00 | 0.00 | 91 | 1001.8 |
| 20260503045748 | 35 | 184 | 0.0 | 0.0 | 0.00 | 0.00 | 0.00 | 91 | 1001.9 |
| 20260503045246 | 35 | 186 | 0.0 | 0.0 | 0.00 | 0.00 | 0.00 | 92 | 1001.9 |
| 20260503044742 | 35 | 162 | 0.0 | 0.0 | 0.00 | 0.00 | 0.00 | 91 | 1002.0 |
| 20260503044239 | 35 | 162 | 0.0 | 0.0 | 0.00 | 0.00 | 0.00 | 91 | 1001.9 |
| 20260503043737 | 35 | 162 | 0.0 | 0.0 | 0.00 | 0.00 | 0.00 | 89 | 1001.9 |
| 20260503043234 | 35 | 162 | 0.0 | 0.0 | 0.00 | 0.00 | 0.00 | 89 | 1001.8 |
| 20260503042729 | 35 | 162 | 0.0 | 0.0 | 0.00 | 0.00 | 0.00 | 87 | 1001.9 |
| 20260503042226 | 35 | 162 | 0.0 | 0.0 | 0.00 | 0.00 | 0.00 | 87 | 1002.0 |
| 20260503041722 | 35 | 162 | 0.0 | 0.0 | 0.00 | 0.00 | 0.00 | 85 | 1002.0 |
| 20260503041220 | 36 | 162 | 0.0 | 0.0 | 0.00 | 0.00 | 0.00 | 85 | 1001.9 |
| 20260503040717 | 36 | 162 | 0.0 | 0.0 | 0.00 | 0.00 | 0.00 | 84 | 1002.1 |
| 20260503040215 | 37 | 162 | 0.0 | 0.0 | 0.00 | 0.00 | 0.00 | 83 | 1002.0 |
| 20260503035712 | 37 | 162 | 0.0 | 0.0 | 0.00 | 0.00 | 0.00 | 83 | 1002.1 |
| 20260503035209 | 37 | 162 | 0.0 | 0.0 | 0.00 | 0.00 | 0.00 | 82 | 1002.2 |
| 20260503034706 | 38 | 162 | 0.0 | 0.0 | 0.00 | 0.00 | 0.00 | 82 | 1002.0 |
| 20260503034203 | 38 | 162 | 0.0 | 0.0 | 0.00 | 0.00 | 0.00 | 81 | 1002.1 |
| 20260503033700 | 38 | 162 | 0.0 | 0.0 | 0.00 | 0.00 | 0.00 | 80 | 1002.2 |
| 20260503033158 | 39 | 162 | 0.0 | 0.0 | 0.00 | 0.00 | 0.00 | 79 | 1002.2 |
| 20260503032656 | 39 | 162 | 0.0 | 0.0 | 0.00 | 0.00 | 0.00 | 77 | 1002.1 |
| 20260503032154 | 39 | 162 | 0.0 | 0.0 | 0.00 | 0.00 | 0.00 | 76 | 1002.1 |
| 20260503031651 | 40 | 162 | 0.0 | 0.0 | 0.00 | 0.00 | 0.00 | 74 | 1002.1 |
| 20260503031149 | 40 | 162 | 0.0 | 0.0 | 0.00 | 0.00 | 0.00 | 71 | 1002.0 |
| 20260503030645 | 41 | 162 | 0.0 | 0.0 | 0.00 | 0.00 | 0.00 | 69 | 1002.1 |
| 20260503030142 | 42 | 162 | 0.0 | 0.0 | 0.00 | 0.00 | 0.00 | 67 | 1002.0 |
| 20260503025638 | 42 | 162 | 0.0 | 0.0 | 0.00 | 0.00 | 0.00 | 66 | 1002.0 |
| 20260503025137 | 42 | 158 | 0.0 | 0.0 | 0.00 | 0.00 | 0.00 | 66 | 1002.1 |
| 20260503024632 | 43 | 162 | 0.0 | 0.0 | 0.00 | 0.00 | 0.00 | 65 | 1001.9 |
| 20260503024130 | 43 | 164 | 0.0 | 0.0 | 0.00 | 0.00 | 0.00 | 64 | 1001.9 |
| 20260503023627 | 44 | 168 | 0.0 | 0.0 | 0.00 | 0.00 | 0.00 | 63 | 1001.9 |
| 20260503023124 | 44 | 144 | 0.0 | 0.0 | 0.00 | 0.00 | 0.00 | 63 | 1001.9 |
| 20260503022620 | 44 | 133 | 0.9 | 0.9 | 0.00 | 0.00 | 0.00 | 61 | 1001.8 |
| 20260503022114 | 44 | 156 | 0.0 | 0.0 | 0.00 | 0.00 | 0.00 | 61 | 1001.6 |
| 20260503021612 | 44 | 167 | 0.0 | 0.0 | 0.00 | 0.00 | 0.00 | 60 | 1001.7 |
| 20260503021108 | 45 | 171 | 0.0 | 0.0 | 0.00 | 0.00 | 0.00 | 60 | 1001.7 |
| 20260503020605 | 45 | 161 | 0.0 | 0.0 | 0.00 | 0.00 | 0.00 | 59 | 1001.6 |
| 20260503015559 | 46 | 116 | 1.7 | 1.7 | 0.00 | 0.00 | 0.00 | 58 | 1001.5 |
| 20260503015056 | 46 | 123 | 1.7 | 1.7 | 0.00 | 0.00 | 0.00 | 57 | 1001.5 |
| 20260503014552 | 46 | 55 | 1.7 | 2.6 | 0.00 | 0.00 | 0.00 | 57 | 1001.2 |
| 20260503014050 | 46 | 133 | 0.9 | 0.9 | 0.00 | 0.00 | 0.00 | 56 | 1001.2 |
| 20260503013547 | 46 | 142 | 1.7 | 1.7 | 0.00 | 0.00 | 0.00 | 56 | 1001.1 |
| 20260503013045 | 46 | 17 | 2.6 | 2.6 | 0.00 | 0.00 | 0.00 | 55 | 1001.3 |
| 20260503012542 | 47 | 88 | 0.9 | 0.9 | 0.00 | 0.00 | 0.00 | 55 | 1001.1 |
| 20260503012038 | 47 | 94 | 0.9 | 0.9 | 0.00 | 0.00 | 0.00 | 55 | 1000.9 |
| 20260503011535 | 47 | 115 | 2.6 | 2.6 | 0.00 | 0.00 | 0.00 | 55 | 1001.0 |
| 20260503011032 | 47 | 133 | 0.9 | 1.7 | 0.00 | 0.00 | 0.00 | 54 | 1000.8 |
| 20260503010528 | 47 | 69 | 2.6 | 2.6 | 0.00 | 0.00 | 0.00 | 54 | 1000.8 |
| 20260503010026 | 47 | 62 | 0.9 | 0.9 | 0.00 | 0.00 | 0.00 | 54 | 1000.7 |
| 20260503005523 | 48 | 39 | 1.7 | 2.6 | 0.00 | 0.00 | 0.00 | 53 | 1000.7 |
| 20260503005020 | 48 | 128 | 0.9 | 0.9 | 0.00 | 0.00 | 0.00 | 53 | 1000.7 |
| 20260503004516 | 48 | 72 | 1.7 | 1.7 | 0.00 | 0.00 | 0.00 | 52 | 1000.7 |
| 20260503004015 | 48 | 145 | 0.9 | 0.9 | 0.00 | 0.00 | 0.00 | 51 | 1000.6 |
| 20260503003511 | 48 | 14 | 1.7 | 1.7 | 0.00 | 0.00 | 0.00 | 51 | 1000.6 |
| 20260503003009 | 49 | 32 | 0.9 | 1.7 | 0.00 | 0.00 | 0.00 | 51 | 1000.5 |
| 20260503002506 | 49 | 34 | 2.6 | 4.3 | 0.00 | 0.00 | 0.00 | 50 | 1000.6 |
| 20260503002001 | 49 | 186 | 1.7 | 2.6 | 0.00 | 0.00 | 0.00 | 50 | 1000.5 |
| 20260503001458 | 49 | 118 | 0.9 | 0.9 | 0.00 | 0.00 | 0.00 | 50 | 1000.2 |
| 20260503000956 | 50 | 36 | 2.6 | 2.6 | 0.00 | 0.00 | 0.00 | 48 | 1000.4 |
| 20260503000453 | 50 | 71 | 2.6 | 2.6 | 0.00 | 0.00 | 0.00 | 48 | 1000.4 |
| 20260502235950 | 50 | 60 | 1.7 | 1.7 | 0.00 | 0.00 | 0.00 | 50 | 1000.2 |
| 20260502235447 | 50 | 169 | 0.9 | 0.9 | 0.00 | 0.00 | 0.00 | 49 | 1000.2 |
| 20260502234944 | 51 | 24 | 2.6 | 2.6 | 0.00 | 0.00 | 0.00 | 48 | 1000.1 |
| 20260502234440 | 51 | 83 | 4.3 | 6.1 | 0.00 | 0.00 | 0.00 | 46 | 1000.0 |
| 20260502233938 | 52 | 52 | 2.6 | 4.3 | 0.00 | 0.00 | 0.00 | 45 | 1000.1 |
| 20260502233433 | 52 | 58 | 4.3 | 6.1 | 0.00 | 0.00 | 0.00 | 45 | 1000.0 |
| 20260502232930 | 52 | 76 | 2.6 | 2.6 | 0.00 | 0.00 | 0.00 | 45 | 999.9 |
| 20260502232426 | 52 | 74 | 2.6 | 4.3 | 0.00 | 0.00 | 0.00 | 44 | 1000.1 |
| 20260502231924 | 53 | 165 | 0.9 | 1.7 | 0.00 | 0.00 | 0.00 | 45 | 999.9 |
| 20260502231421 | 53 | 61 | 1.7 | 1.7 | 0.00 | 0.00 | 0.00 | 44 | 999.9 |
| 20260502230919 | 53 | 51 | 3.5 | 5.2 | 0.00 | 0.00 | 0.00 | 42 | 999.8 |
| 20260502230417 | 54 | 12 | 2.6 | 4.3 | 0.00 | 0.00 | 0.00 | 41 | 999.9 |
| 20260502225915 | 54 | 104 | 1.7 | 2.6 | 0.00 | 0.00 | 0.00 | 41 | 999.9 |
| 20260502225410 | 53 | 167 | 2.6 | 4.3 | 0.00 | 0.00 | 0.00 | 43 | 1000.0 |
| 20260502224908 | 54 | 77 | 2.6 | 4.3 | 0.00 | 0.00 | 0.00 | 41 | 999.9 |
| 20260502224403 | 54 | 30 | 1.7 | 2.6 | 0.00 | 0.00 | 0.00 | 42 | 1000.0 |
| 20260502223900 | 54 | 226 | 4.3 | 5.2 | 0.00 | 0.00 | 0.00 | 41 | 999.8 |
| 20260502223358 | 55 | 2 | 4.3 | 5.2 | 0.00 | 0.00 | 0.00 | 40 | 999.8 |
| 20260502222856 | 53 | 182 | 0.0 | 0.9 | 0.00 | 0.00 | 0.00 | 43 | 999.9 |
| 20260502222354 | 53 | 63 | 3.5 | 4.3 | 0.00 | 0.00 | 0.00 | 41 | 999.9 |
| 20260502221849 | 54 | 276 | 2.6 | 2.6 | 0.00 | 0.00 | 0.00 | 39 | 999.8 |
| 20260502221346 | 55 | 57 | 2.6 | 2.6 | 0.00 | 0.00 | 0.00 | 41 | 999.8 |
| 20260502220843 | 54 | 73 | 4.3 | 6.1 | 0.00 | 0.00 | 0.00 | 39 | 999.8 |
| 20260502220339 | 54 | 34 | 3.5 | 5.2 | 0.00 | 0.00 | 0.00 | 39 | 999.7 |
| 20260502215835 | 54 | 22 | 6.1 | 7.8 | 0.00 | 0.00 | 0.00 | 41 | 999.8 |
| 20260502215333 | 55 | 45 | 2.6 | 2.6 | 0.00 | 0.00 | 0.00 | 41 | 999.7 |
| 20260502214829 | 56 | 38 | 2.6 | 4.3 | 0.00 | 0.00 | 0.00 | 40 | 999.7 |
| 20260502214326 | 56 | 198 | 0.9 | 0.9 | 0.00 | 0.00 | 0.00 | 39 | 999.6 |
| 20260502213824 | 53 | 217 | 2.6 | 2.6 | 0.00 | 0.00 | 0.00 | 42 | 999.6 |
| 20260502213321 | 53 | 27 | 3.5 | 4.3 | 0.00 | 0.00 | 0.00 | 41 | 999.8 |
| 20260502212820 | 54 | 79 | 0.9 | 0.9 | 0.00 | 0.00 | 0.00 | 42 | 999.7 |
| 20260502212318 | 55 | 138 | 4.3 | 5.2 | 0.00 | 0.00 | 0.00 | 41 | 999.6 |
| 20260502211815 | 55 | 12 | 3.5 | 5.2 | 0.00 | 0.00 | 0.00 | 40 | 999.6 |
| 20260502211310 | 55 | 281 | 3.5 | 4.3 | 0.00 | 0.00 | 0.00 | 41 | 999.5 |
| 20260502210807 | 55 | 60 | 3.5 | 5.2 | 0.00 | 0.00 | 0.00 | 41 | 999.4 |
| 20260502210259 | 56 | 266 | 2.6 | 4.3 | 0.00 | 0.00 | 0.00 | 43 | 999.4 |
| 20260502205756 | 55 | 351 | 3.5 | 5.2 | 0.00 | 0.00 | 0.00 | 40 | 999.6 |
| 20260502205252 | 54 | 37 | 3.5 | 5.2 | 0.00 | 0.00 | 0.00 | 46 | 999.5 |
| 20260502204749 | 54 | 165 | 0.9 | 0.9 | 0.00 | 0.00 | 0.00 | 41 | 999.4 |
| 20260502204246 | 55 | 297 | 3.5 | 6.1 | 0.00 | 0.00 | 0.00 | 41 | 999.5 |
| 20260502203744 | 56 | 231 | 4.3 | 6.1 | 0.00 | 0.00 | 0.00 | 43 | 999.6 |
| 20260502203242 | 54 | 18 | 1.7 | 1.7 | 0.00 | 0.00 | 0.00 | 42 | 999.5 |
| 20260502202736 | 56 | 173 | 2.6 | 5.2 | 0.00 | 0.00 | 0.00 | 42 | 999.6 |
| 20260502202234 | 54 | 266 | 3.5 | 5.2 | 0.00 | 0.00 | 0.00 | 44 | 999.7 |
| 20260502201731 | 54 | 144 | 2.6 | 2.6 | 0.00 | 0.00 | 0.00 | 43 | 999.8 |
| 20260502201227 | 54 | 79 | 1.7 | 1.7 | 0.00 | 0.00 | 0.00 | 43 | 999.8 |
| 20260502200724 | 54 | 51 | 2.6 | 2.6 | 0.00 | 0.00 | 0.00 | 44 | 999.9 |